Location: Berg
(48.4333°N, 13.9167°E)
Time: 06:10:13
(UTC+00:00)

Cosmos 2263 Rocket - Pass Details

Date: 18 September 2020
Orbit: 822 x 849 km, 71.0° (Epoch: 22 October)

Event Time Altitude Azimuth Distance (km) Brightness Sun altitude
Rises 17:48:16 0° 198° (SSW) 3,344 5.4 -7.1°
Reaches altitude 10° 17:50:41 10° 196° (SSW) 2,417 4.7 -7.5°
Maximum altitude 17:56:10 69° 114° (ESE) 885 2.1 -8.4°
Drops below altitude 10° 18:01:44 10° 32° (NNE) 2,446 4.4 -9.3°
Sets 18:04:12 0° 30° (NNE) 3,387 5.2 -9.7°
